Weather History for MKJP - January, 2013

Change the Weather History Date:

Friday, January 4, 2013

  Actual Average Record
Temperature  
Mean Temperature 82 °F -  
Max Temperature 91 °F 84 °F 91 °F (2007)
Min Temperature 72 °F 74 °F 71 °F (2011)
Cooling Degree Days 16    
Growing Degree Days 32 (Base 50)    
Moisture  
Dew Point 69 °F    
Average Humidity 65    
Maximum Humidity 83    
Minimum Humidity 42    
Precipitation  
Precipitation 0.00 in - - ()
Sea Level Pressure  
Sea Level Pressure 30.02 in    
Wind  
Wind Speed 7 mph ()    
Max Wind Speed 20 mph    
Max Gust Speed -    
Visibility 7.5 miles    
Events      
Averages and records for this station are not official NWS values.
T = Trace of Precipitation, MM = Missing Value Source: Averaged Metar Reports

Daily Weather History Graph

Daily Weather History Graph

Search for Another Location

Airport or City:

Trip Planner

Search our weather history database for the weather conditions in past years. The results will help you decide how hot, cold, wet, or windy it might be!

Date:

Astronomy

Jan. 04, 2013 Rise Set
Actual Time 6:39 AM EST 5:45 PM EST
Civil Twilight 6:15 AM EST 6:08 PM EST
Nautical Twilight 5:48 AM EST 6:35 PM EST
Astronomical Twilight 5:22 AM EST 7:02 PM EST
Moon No Moon Rise 11:25 AM EST (1/4)
Length of Visible Light 11h 52m
Length of Day
11h 05m
Waning Gibbous, 55% of the Moon is Illuminated
Jan 4
Waning Gibbous
Jan 4
Last Quarter
Jan 11
New
Jan 18
First Quarter
Jan 26
Full

Hourly Weather History & Observations

Time (EST) Temp. Heat Index Dew Point Humidity Pressure Visibility Wind Dir Wind Speed Gust Speed Precip Events Conditions
12:00 AM 78.8 °F - 68.0 °F 69% 30.01 in 6.2 mi North 3.5 mph - N/A   Partly Cloudy
1:00 AM 75 °F - 70 °F 80% 30.02 in 12 mi North 5.8 mph - -   Haze
1:00 AM 75.2 °F - 69.8 °F 83% 30.01 in 6.2 mi North 5.8 mph - N/A   Partly Cloudy
2:00 AM 75.2 °F - 68.0 °F 78% 30.01 in 6.2 mi NNW 3.5 mph - N/A   Partly Cloudy
3:00 AM 75.2 °F - 68.0 °F 78% 30.01 in 6.2 mi NNW 8.1 mph - N/A   Partly Cloudy
4:00 AM 77 °F - 66 °F 62% 30.01 in 12 mi NNE 5.8 mph - -   Haze
4:00 AM 77.0 °F - 66.2 °F 69% 30.01 in 6.2 mi NNE 5.8 mph - N/A   Partly Cloudy
5:00 AM 75.2 °F - 64.4 °F 69% 30.01 in 6.2 mi NNW 5.8 mph - N/A   Partly Cloudy
6:00 AM 77.0 °F - 64.4 °F 65% 30.01 in 6.2 mi North 8.1 mph - N/A   Partly Cloudy
7:00 AM 76 °F - 64 °F 59% 30.04 in 22 mi North 6.9 mph - -   Haze
7:00 AM 77.0 °F - 64.4 °F 65% 30.04 in 6.2 mi North 6.9 mph - N/A   Partly Cloudy
8:00 AM 78.8 °F - 64.4 °F 61% 30.04 in 6.2 mi NNW 8.1 mph - N/A   Partly Cloudy
9:00 AM - - - N/A% - - NW 9.2 mph - N/A   Unknown
10:00 AM 83 °F - 64 °F 43% 30.09 in 19 mi West 6.9 mph - -   Haze
10:00 AM 84.2 °F 85.6 °F 64.4 °F 51% 30.06 in 6.2 mi West 6.9 mph - N/A   Partly Cloudy
11:00 AM 86.0 °F 88.2 °F 66.2 °F 51% 30.06 in 6.2 mi West 4.6 mph - N/A   Partly Cloudy
12:00 PM 87.8 °F 91.4 °F 68.0 °F 52% 30.04 in 6.2 mi West 4.6 mph - N/A   Partly Cloudy
1:00 PM 89 °F - 69 °F 42% 30.02 in 25 mi SSW 8.1 mph - -   Haze
1:00 PM 89.6 °F 94.7 °F 69.8 °F 52% 30.01 in 6.2 mi SSW 8.1 mph - N/A   Partly Cloudy
2:00 PM 87.8 °F 95.6 °F 73.4 °F 62% 29.98 in 6.2 mi SE 13.8 mph - N/A   Mostly Cloudy
3:00 PM 86.0 °F 91.8 °F 71.6 °F 62% 29.98 in 6.2 mi SE 19.6 mph - N/A   Mostly Cloudy
4:00 PM 85 °F - 72 °F 56% 29.99 in 7 mi SE 16.1 mph - -   Mostly Cloudy
4:00 PM 86.0 °F 91.8 °F 71.6 °F 62% 29.98 in 6.2 mi SE 16.1 mph - N/A   Mostly Cloudy
5:00 PM 86.0 °F 91.8 °F 71.6 °F 62% 29.98 in 6.2 mi SE 17.3 mph - N/A   Partly Cloudy
6:00 PM 82.4 °F 87.2 °F 71.6 °F 70% 30.01 in 6.2 mi ESE 13.8 mph - N/A   Partly Cloudy
7:00 PM 83 °F - 72 °F 62% 30.03 in 12 mi North 8.1 mph - -   Haze
7:00 PM 84.2 °F 89.6 °F 71.6 °F 66% 30.01 in 6.2 mi North 8.1 mph - N/A   Partly Cloudy
8:00 PM 80.6 °F 84.6 °F 71.6 °F 74% 30.04 in 6.2 mi SW 3.5 mph - N/A   Partly Cloudy
9:00 PM 80.6 °F 84.6 °F 71.6 °F 74% 30.06 in 6.2 mi NW 9.2 mph - N/A   Partly Cloudy
10:00 PM 79 °F - 72 °F 73% 30.06 in 12 mi NNW 5.8 mph - -   Haze
10:00 PM 78.8 °F - 71.6 °F 78% 30.06 in 6.2 mi NNW 5.8 mph - N/A   Partly Cloudy
11:00 PM 78.8 °F - 69.8 °F 74% 30.04 in 6.2 mi NNW 6.9 mph - N/A   Scattered Clouds